sat.trackr.live / text

‹ back to catalog

STARLINK-30768

NORAD 58120 · 2023-162C

PAYLOAD ACTIVE UNKNOWN

§ Identity

Operator
Country
US
Launch date
2023-10-22
Launch site
AFETR
Launch vehicle
Mass (kg)
RCS (m²)

Purposes: comms

External: N2YO · Heavens-Above · Gunter

§ Orbital elements

Epoch: 2026-05-25T03:23:26.854656Z

Period
94.27 min
Inclination
43.0055°
Eccentricity
0.0001220
Mean motion
15.27587968 rev/d
Perigee alt
482.2 km
Apogee alt
483.9 km
Semi-major
6,861.2 km
B*
7.4711e-5
RAAN
60.3734°
Arg perigee
266.6174°
Mean anomaly
93.4539°
Rev number
14,400

§ Raw data

STARLINK-307681 58120U 23162C   26145.14128304  .00001795  00000+0  74711-4 0  99962 58120  43.0055  60.3734 0001220 266.6174  93.4539 15.27587968144005

JSON: /api/v1/satellites/58120 · /tle

For live sub-satellite position, see the globe view (requires WebGL).

§ Visibility from observer

Set your observer location to see the next 7 days of passes ≥ 10°. The values pass through the URL so the page stays shareable.

No JS? Fill the form by hand. The geolocation button needs JavaScript.